[[{"header":{"parameterUnit":"m.s-1","parameterCategory":2,"la1":30.2991,"la2":30.254,"lo1":-89.0895,"lo2":-89.0444,"dy":0.0017,"dx":0.0017,"nx":28,"ny":28,"refTime":"2026-02-17T09:00:00:Z","depth":"0","parameterNumber":2,"parameterNumberName":"U-component_of_CURRENTS"},"data":[0,0,0,0,0,0,0,0,0,0,0,0,0,0,0,0,0,0,0,0,0,0,0,0,0,0,0,0,0,0,0,0,0,0,0,0,0,0,0,0,0,0,0,0,0,0,0,0,0,0,0,0,0,0,0,0,0,0,0.1782,0.1783,0,0.181,0.181,0.1811,0.1799,0.1799,0.1798,0.1798,0.1806,0.1807,0.1807,0,0,0,0,0,0,0,0,0,0,0,0,0,0.1712,0.1713,0.1782,0.1783,0.1783,0.181,0.181,0.1811,0.1799,0.1799,0.1798,0.1798,0.1806,0.1807,0.1807,0,0,0,0,0,0,0,0,0,0,0,0,0,0.1739,0.1713,0.1782,0.1783,0.1784,0.181,0.181,0.1811,0.1799,0.1799,0.1798,0.1797,0.1806,0.1806,0.1807,0.1825,0,0,0.181,0.1811,0,0,0,0,0,0,0,0,0.1737,0.1741,0.1782,0.1783,0.1784,0.1803,0.1789,0.1815,0.1799,0.179,0.1798,0.1797,0.1805,0.1806,0.1809,0.1826,0.1826,0.181,0.1811,0.1811,0.1811,0,0,0,0,0,0,0,0.1735,0.174,0.179,0.1783,0.1784,0.178,0.1783,0.1794,0.1798,0.1791,0.1791,0.1799,0.1805,0.1808,0.1809,0.1826,0.181,0.1811,0.1812,0.1812,0.1882,0.1884,0,0,0,0,0,0,0.1739,0.1738,0.179,0.1792,0.1762,0.1782,0.1785,0.1795,0.1799,0.18,0.1799,0.1798,0.1807,0.1808,0.181,0.1859,0.1811,0.1812,0.1813,0.1881,0.1883,0.1884,0,0,0,0,0,0,0.1737,0.1743,0.1789,0.1767,0.1773,0.1784,0.1795,0.1796,0.1803,0.1806,0.1806,0.1806,0.1807,0.1808,0.1826,0.1858,0.1812,0.1813,0.188,0.1882,0.1883,0.194,0,0,0,0,0,0,0.1735,0.1742,0.175,0.1768,0.1775,0.1812,0.1796,0.1797,0.181,0.1808,0.1812,0.1811,0.1806,0.1825,0.1827,0.1859,0.1814,0.1878,0.188,0.1883,0.1937,0.1944,0.195,0,0,0,0,0,0.1732,0.1746,0.175,0.1757,0.1785,0.1813,0.1816,0.1819,0.1811,0.1821,0.1822,0.1811,0.1843,0.1827,0.1829,0.1862,0.1877,0.188,0.1883,0.1934,0.1943,0.195,0,0,0,0,0,0,0.1716,0.1747,0.1752,0.1773,0.1796,0.1812,0.1823,0.1825,0.1834,0.1832,0.1825,0.1826,0.1855,0.185,0.1833,0.1889,0.186,0.1863,0.1898,0.1906,0.1913,0.1924,0.1815,0,0,0,0,0,0.1719,0.1738,0.1766,0.1784,0.1797,0.1811,0.1822,0.1828,0.1839,0.1842,0.1845,0.1853,0.1871,0.188,0.189,0.192,0.1946,0.1943,0.195,0.1956,0.1967,0.2024,0.2037,0.1894,0.1894,0.1894,0,0,0.1716,0.1737,0.1746,0.1782,0.1798,0.1825,0.1815,0.1839,0.1863,0.1843,0.187,0.1875,0.1883,0.1917,0.193,0.1916,0.2017,0.196,0.1964,0.1973,0.2029,0.2043,0.2055,0.1896,0.1896,0.1895,0,0,0.1725,0.1742,0.1763,0.1788,0.1822,0.1836,0.1846,0.1871,0.1883,0.1911,0.1907,0.1933,0.1949,0.1971,0.1981,0.2033,0.2049,0.2035,0.2082,0.2137,0.215,0.2161,0.2242,0.226,0.2041,0.2041,0.2041,0,0.1717,0.1751,0.1773,0.1803,0.1826,0.1844,0.1873,0.1895,0.1921,0.1944,0.1925,0.1979,0.198,0.204,0.2055,0.2051,0.209,0.2049,0.2147,0.2158,0.2169,0.2249,0.2268,0.2044,0.2043,0.2043,0.2043,0,0.1746,0.1774,0.179,0.1836,0.1863,0.1892,0.1929,0.1957,0.197,0.1995,0.205,0.2058,0.2093,0.2101,0.2091,0.2172,0.2181,0.2148,0.2127,0.2187,0.2268,0.2286,0.2048,0.2047,0.2046,0.2045,0,0,0.1723,0.1795,0.18,0.1827,0.1883,0.1908,0.196,0.2016,0.2057,0.2086,0.2148,0.2177,0.2188,0.2202,0.2205,0.2249,0.236,0.2232,0.2234,0.2316,0.2513,0.2592,0.2619,0.2343,0.2346,0.2348,0.2551,0,0.1736,0.1792,0.1829,0.1882,0.1913,0.1957,0.2005,0.206,0.2102,0.2169,0.2207,0.226,0.2228,0.2252,0.2296,0.2342,0.2408,0.2311,0.244,0.2445,0.2509,0.2643,0.2604,0.2787,0.2569,0.2572,0.2574,0,0.1748,0.1788,0.1837,0.1912,0.193,0.1965,0.2048,0.2097,0.2197,0.2235,0.2302,0.2336,0.2427,0.2376,0.2508,0.2449,0.2492,0.2522,0.253,0.2595,0.2559,0.2687,0.2829,0.2773,0.2603,0.2601,0.2599,0,0.1717,0.1792,0.1829,0.1854,0.194,0.1973,0.2023,0.2114,0.2172,0.2288,0.2349,0.2444,0.2511,0.2572,0.2653,0.2585,0.2809,0.2718,0.2839,0.2845,0.2836,0.2837,0.294,0.2822,0.2822,0.2821,0.2821,0,0.1714,0.1743,0.1816,0.1837,0.1888,0.1959,0.2023,0.2092,0.2209,0.2298,0.2381,0.2479,0.2561,0.2693,0.2726,0.2887,0.288,0.2898,0.2918,0.2859,0.2859,0.2825,0.2772,0.2829,0.2827,0.2826,0.2824,0,0.1669,0.1718,0.176,0.1844,0.1871,0.1906,0.2014,0.2073,0.2187,0.2314,0.2363,0.2545,0.2737,0.285,0.2995,0.3008,0.3073,0.3174,0.3125,0.3137,0.3157,0.3109,0.3114,0.301,0.3334,0.3337,0.334,0,0.1649,0.1666,0.174,0.1768,0.1803,0.1865,0.1915,0.204,0.2118,0.2353,0.2426,0.267,0.2865,0.3159,0.3247,0.3406,0.3238,0.3419,0.3271,0.3215,0.3174,0.2979,0.2873,0.3289,0.3291,0.3293,0.3294,0,0.1611,0.1631,0.167,0.1725,0.1774,0.1832,0.1924,0.1992,0.2163,0.2308,0.2561,0.2756,0.3076,0.3271,0.3489,0.3538,0.3284,0.3461,0.3402,0.3179,0.2973,0.2864,0.3111,0.3311,0.3309,0.3308,0.3307,0.3306,0.1579,0.1597,0.1654,0.1716,0.175,0.183,0.1885,0.2008,0.2172,0.2409,0.2595,0.2871,0.3178,0.3511,0.3542,0.3582,0.3445,0.3486,0.3448,0.3267,0.3117,0.3436,0.3649,0.3649,0.3649,0.365,0.365,0,0.1596,0.1631,0.1658,0.1736,0.1762,0.1803,0.1917,0.1989,0.2175,0.2407,0.2638,0.3003,0.3266,0.3454,0.3635,0.3567,0.3327,0.3485,0.3171,0.3073,0.3391,0.3339,0.3495,0.3495,0.3495,0.3495,0.3495,0.3495,0.1623,0.1669,0.1705,0.1762,0.1794,0.1849,0.1918,0.2025,0.2178,0.2459,0.2666,0.2854,0.3232,0.3579,0.3619,0.3529,0.321,0.3155,0.3051,0.3274,0.3267,0.326,0.3198,0.3323,0.3322,0.2598,0.2593,0.2589]},{"header":{"parameterUnit":"m.s-1","parameterCategory":2,"la1":30.2991,"la2":30.254,"lo1":-89.0895,"lo2":-89.0444,"dy":0.0017,"dx":0.0017,"nx":28,"ny":28,"refTime":"2026-02-17T09:00:00:Z","depth":"0","parameterNumber":3,"parameterNumberName":"V-component_of_CURRENTS"},"data":[0,0,0,0,0,0,0,0,0,0,0,0,0,0,0,0,0,0,0,0,0,0,0,0,0,0,0,0,0,0,0,0,0,0,0,0,0,0,0,0,0,0,0,0,0,0,0,0,0,0,0,0,0,0,0,0,0,0,-0.0278,-0.0279,0,-0.0327,-0.0328,-0.0328,-0.0356,-0.0356,-0.0356,-0.0356,-0.0433,-0.0435,-0.0437,0,0,0,0,0,0,0,0,0,0,0,0,0,-0.0238,-0.0238,-0.0278,-0.0279,-0.028,-0.0327,-0.0328,-0.0328,-0.0356,-0.0356,-0.0356,-0.0356,-0.0433,-0.0435,-0.0437,0,0,0,0,0,0,0,0,0,0,0,0,0,-0.0267,-0.0238,-0.0278,-0.03,-0.0302,-0.0327,-0.0328,-0.0329,-0.0356,-0.0356,-0.0356,-0.0357,-0.0432,-0.0435,-0.0437,-0.0451,0,0,-0.0446,-0.0447,0,0,0,0,0,0,0,0,-0.0265,-0.0268,-0.0296,-0.0298,-0.0301,-0.0336,-0.0342,-0.0371,-0.0356,-0.0335,-0.0356,-0.0357,-0.0404,-0.0409,-0.0416,-0.0454,-0.0457,-0.0446,-0.0448,-0.0449,-0.045,0,0,0,0,0,0,0,-0.0263,-0.0267,-0.0297,-0.0296,-0.03,-0.0317,-0.0321,-0.0347,-0.0367,-0.0337,-0.0339,-0.0345,-0.0405,-0.0413,-0.0418,-0.0459,-0.0446,-0.0449,-0.0451,-0.0452,-0.0516,-0.0516,0,0,0,0,0,0,-0.0257,-0.0265,-0.0296,-0.0299,-0.0284,-0.0317,-0.0322,-0.0324,-0.0367,-0.0373,-0.0345,-0.0346,-0.0408,-0.0415,-0.0421,-0.0438,-0.0449,-0.0452,-0.0454,-0.0516,-0.0516,-0.0516,0,0,0,0,0,0,-0.0256,-0.0259,-0.0294,-0.0284,-0.0289,-0.0317,-0.032,-0.0325,-0.0334,-0.0373,-0.038,-0.0349,-0.0409,-0.0417,-0.0438,-0.0441,-0.0453,-0.0456,-0.0516,-0.0516,-0.0516,-0.0472,0,0,0,0,0,0,-0.0254,-0.0258,-0.0255,-0.0283,-0.029,-0.0303,-0.032,-0.0326,-0.0338,-0.034,-0.0378,-0.0386,-0.041,-0.0433,-0.0441,-0.0445,-0.0458,-0.0516,-0.0516,-0.0516,-0.0474,-0.0471,-0.0468,0,0,0,0,0,-0.0252,-0.0243,-0.0255,-0.0259,-0.0286,-0.0303,-0.0307,-0.0328,-0.0337,-0.0338,-0.0361,-0.0384,-0.0439,-0.0435,-0.0444,-0.045,-0.0516,-0.0516,-0.0516,-0.0475,-0.0471,-0.0468,0,0,0,0,0,0,-0.0219,-0.0247,-0.0259,-0.0258,-0.0278,-0.0308,-0.0308,-0.0326,-0.0344,-0.0345,-0.0382,-0.0391,-0.0411,-0.0435,-0.043,-0.0468,-0.0483,-0.0485,-0.0448,-0.0445,-0.0443,-0.0427,-0.046,0,0,0,0,0,-0.0212,-0.0215,-0.0245,-0.0243,-0.0251,-0.028,-0.0289,-0.0304,-0.0326,-0.0335,-0.0362,-0.0392,-0.0419,-0.0434,-0.046,-0.0479,-0.05,-0.0489,-0.0487,-0.0484,-0.0478,-0.0522,-0.0522,-0.0516,-0.0516,-0.0516,0,0,-0.0199,-0.0214,-0.0215,-0.0237,-0.0253,-0.0255,-0.0285,-0.0295,-0.0298,-0.0341,-0.035,-0.0382,-0.0421,-0.044,-0.0453,-0.0461,-0.0493,-0.0484,-0.0481,-0.0477,-0.0522,-0.0523,-0.0523,-0.0516,-0.0516,-0.0516,0,0,-0.017,-0.0186,-0.0179,-0.0193,-0.0216,-0.0234,-0.0236,-0.0265,-0.0278,-0.0294,-0.0326,-0.0358,-0.0395,-0.0425,-0.0445,-0.0444,-0.0476,-0.0455,-0.0431,-0.0474,-0.0475,-0.0476,-0.0483,-0.0485,-0.0455,-0.0455,-0.0455,0,-0.015,-0.0147,-0.0178,-0.0175,-0.0179,-0.0221,-0.0211,-0.0231,-0.0264,-0.0272,-0.0289,-0.0352,-0.0388,-0.0418,-0.0419,-0.0438,-0.0455,-0.0439,-0.047,-0.0472,-0.0473,-0.0481,-0.0483,-0.0453,-0.0453,-0.0453,-0.0454,0,-0.0119,-0.0116,-0.011,-0.0121,-0.013,-0.0128,-0.0161,-0.0172,-0.0196,-0.0223,-0.0256,-0.0309,-0.0346,-0.0369,-0.0394,-0.0426,-0.0429,-0.046,-0.0476,-0.0471,-0.0479,-0.0483,-0.045,-0.0451,-0.0451,-0.0452,0,0,-0.0072,-0.0085,-0.0082,-0.0074,-0.01,-0.01,-0.0107,-0.0125,-0.0123,-0.0175,-0.0182,-0.0249,-0.0285,-0.031,-0.0356,-0.0399,-0.0427,-0.0431,-0.0434,-0.0431,-0.0495,-0.0437,-0.0436,-0.0465,-0.0466,-0.0467,-0.0487,0,-0.0035,-0.0012,-0.0032,-0.0006,0.0005,-0.003,-0.0028,-0.0053,-0.0083,-0.0101,-0.0176,-0.0199,-0.0261,-0.0276,-0.0333,-0.0399,-0.0438,-0.0417,-0.0504,-0.0506,-0.0452,-0.0439,-0.0419,-0.0431,-0.0491,-0.0491,-0.0492,0,0.0004,0.0015,0.0046,0.0057,0.006,0.0066,0.0065,0.0059,0.0014,-0.001,-0.0064,-0.0114,-0.018,-0.0236,-0.0353,-0.0336,-0.0409,-0.0468,-0.0471,-0.0435,-0.0456,-0.0451,-0.0436,-0.0625,-0.0498,-0.0498,-0.0497,0,0.0055,0.0072,0.0101,0.0103,0.0105,0.0115,0.0113,0.0086,0.0096,0.0047,0.0052,-0.0046,-0.0071,-0.0195,-0.03,-0.0334,-0.0415,-0.0481,-0.0497,-0.0493,-0.0501,-0.0496,-0.0676,-0.0568,-0.0568,-0.0568,-0.0568,0,0.0102,0.0128,0.0129,0.0146,0.019,0.0168,0.0202,0.0186,0.0175,0.0207,0.0102,0.0122,-0.0063,-0.0125,-0.0261,-0.0358,-0.0384,-0.048,-0.0497,-0.0481,-0.0474,-0.0659,-0.0776,-0.0569,-0.0569,-0.0569,-0.0569,0,0.0151,0.015,0.0189,0.0203,0.0215,0.0242,0.027,0.0296,0.0277,0.0317,0.0313,0.0253,0.0195,0.0036,-0.013,-0.027,-0.049,-0.0425,-0.0366,-0.0376,-0.0585,-0.0698,-0.0869,-0.0958,-0.0468,-0.0467,-0.0466,0,0.0179,0.0201,0.0236,0.027,0.0279,0.0316,0.0349,0.0344,0.0387,0.0419,0.046,0.0427,0.0465,0.0261,0.0008,-0.0192,-0.0404,-0.0341,-0.0419,-0.0579,-0.0721,-0.0808,-0.0879,-0.0413,-0.0411,-0.041,-0.0409,0,0.0234,0.0242,0.0276,0.0345,0.0388,0.0441,0.0496,0.0558,0.0579,0.0658,0.078,0.0826,0.064,0.0481,0.0186,0.0,-0.0478,-0.0322,-0.0532,-0.0717,-0.0785,-0.0882,-0.0397,-0.0399,-0.04,-0.0401,-0.0401,-0.0402,0.0282,0.0323,0.0372,0.0448,0.0493,0.0589,0.0686,0.0778,0.092,0.1106,0.1074,0.1233,0.0887,0.0515,0.021,-0.0345,-0.038,-0.0531,-0.0659,-0.0734,-0.0819,-0.0275,-0.0268,-0.0268,-0.0268,-0.0268,-0.0269,0,0.038,0.0424,0.0482,0.0582,0.0664,0.0668,0.0811,0.0954,0.1197,0.1377,0.1541,0.1502,0.1064,0.055,-0.0198,-0.0609,-0.0816,-0.0856,-0.103,-0.1092,-0.0645,-0.0642,-0.0662,-0.0662,-0.0662,-0.0661,-0.0661,-0.0661,0.0442,0.0539,0.058,0.0741,0.0807,0.0974,0.1091,0.1309,0.1496,0.1818,0.1969,0.2025,0.1612,0.0193,-0.0765,-0.1003,-0.1352,-0.1397,-0.1567,-0.1321,-0.1303,-0.1285,-0.1311,-0.1471,-0.1472,-0.1967,-0.1973,-0.1976]}],[{"header":{"parameterUnit":"m.s-1","parameterCategory":2,"la1":30.2991,"la2":30.254,"lo1":-89.0895,"lo2":-89.0444,"dy":0.0017,"dx":0.0017,"nx":28,"ny":28,"refTime":"2026-02-17T09:00:00:Z","depth":"2","parameterNumber":2,"parameterNumberName":"U-component_of_CURRENTS"},"data":[0,0,0,0,0,0,0,0,0,0,0,0,0,0,0,0,0,0,0,0,0,0,0,0,0,0,0,0,0,0,0,0,0,0,0,0,0,0,0,0,0,0,0,0,0,0,0,0,0,0,0,0,0,0,0,0,0,0,0.1613,0.1614,0,0.1645,0.1645,0.1645,0.1643,0.1642,0.1642,0.1642,0.1646,0.1647,0.1647,0,0,0,0,0,0,0,0,0,0,0,0,0,0.1542,0.1543,0.1613,0.1614,0.1614,0.1645,0.1645,0.1645,0.1643,0.1642,0.1642,0.1642,0.1646,0.1647,0.1647,0,0,0,0,0,0,0,0,0,0,0,0,0,0.1571,0.1543,0.1613,0.1619,0.162,0.1645,0.1645,0.1645,0.1643,0.1642,0.1642,0.1642,0.1646,0.1647,0.1647,0.1658,0,0,0.1649,0.1649,0,0,0,0,0,0,0,0,0.1569,0.1573,0.1617,0.1618,0.1619,0.1641,0.1622,0.1649,0.1643,0.1631,0.1642,0.1641,0.1644,0.1645,0.1649,0.1659,0.1659,0.1649,0.1649,0.165,0.165,0,0,0,0,0,0,0,0.1567,0.1572,0.1623,0.1618,0.1619,0.1617,0.162,0.1627,0.1637,0.1632,0.1633,0.164,0.1644,0.1648,0.1649,0.1659,0.1649,0.1649,0.165,0.165,0.1708,0.1709,0,0,0,0,0,0,0.1569,0.157,0.1622,0.1625,0.1595,0.1618,0.1622,0.1633,0.1638,0.1639,0.1641,0.164,0.1647,0.1648,0.1649,0.1694,0.165,0.165,0.165,0.1706,0.1708,0.1709,0,0,0,0,0,0,0.1568,0.1574,0.1621,0.1599,0.1606,0.162,0.1632,0.1634,0.1644,0.1645,0.1645,0.165,0.1647,0.1648,0.1665,0.1693,0.165,0.1651,0.1705,0.1707,0.1708,0.1765,0,0,0,0,0,0,0.1565,0.1573,0.1582,0.16,0.1607,0.1644,0.1633,0.1635,0.165,0.1649,0.1653,0.1652,0.1647,0.1664,0.1665,0.1693,0.1651,0.1703,0.1706,0.1708,0.1761,0.1768,0.1774,0,0,0,0,0,0.1563,0.1576,0.1582,0.1588,0.1619,0.1645,0.1649,0.1655,0.165,0.1661,0.1663,0.1652,0.1679,0.1665,0.1666,0.1695,0.1702,0.1705,0.1708,0.1758,0.1767,0.1774,0,0,0,0,0,0,0.1547,0.1578,0.1584,0.1606,0.1628,0.1646,0.1657,0.1661,0.1672,0.1671,0.1665,0.1666,0.1692,0.1685,0.167,0.1719,0.169,0.1693,0.1728,0.1736,0.1742,0.1749,0.1652,0,0,0,0,0,0.155,0.157,0.1597,0.1615,0.1628,0.1644,0.1655,0.1663,0.1675,0.168,0.1683,0.169,0.1704,0.1712,0.172,0.1745,0.1764,0.1765,0.1772,0.1777,0.1784,0.184,0.1852,0.1718,0.1718,0.1718,0,0,0.1548,0.1569,0.1579,0.1613,0.163,0.1655,0.1649,0.1674,0.1695,0.1679,0.1706,0.1711,0.1715,0.1745,0.1757,0.1744,0.1828,0.1781,0.1785,0.1789,0.1844,0.1857,0.1869,0.172,0.1719,0.1719,0,0,0.1556,0.1575,0.1595,0.1618,0.1652,0.1666,0.1676,0.1701,0.1714,0.1741,0.1739,0.1763,0.1777,0.1795,0.1803,0.1849,0.1858,0.1851,0.1892,0.1947,0.1959,0.1969,0.2023,0.2037,0.1857,0.1857,0.1857,0,0.155,0.1582,0.1604,0.1632,0.1653,0.1673,0.1699,0.172,0.1747,0.1767,0.1755,0.1802,0.1803,0.1853,0.1869,0.1865,0.1897,0.1862,0.1957,0.1967,0.1977,0.2029,0.2045,0.186,0.1859,0.1859,0.1859,0,0.1575,0.1602,0.1618,0.166,0.1686,0.1712,0.1747,0.1774,0.1789,0.1811,0.186,0.187,0.19,0.1909,0.1902,0.1976,0.1977,0.1958,0.1938,0.1994,0.2045,0.2061,0.1864,0.1863,0.1862,0.1861,0,0,0.1553,0.1621,0.1625,0.1651,0.1703,0.1726,0.1772,0.1821,0.1856,0.1887,0.1938,0.1969,0.198,0.199,0.1996,0.2042,0.2139,0.2033,0.2034,0.2089,0.2272,0.2259,0.2274,0.2142,0.2144,0.2147,0.2284,0,0.1564,0.1615,0.165,0.1697,0.1726,0.1767,0.1809,0.1857,0.1895,0.195,0.1986,0.203,0.2011,0.2034,0.208,0.2125,0.218,0.2104,0.2207,0.221,0.2194,0.2291,0.2123,0.223,0.2299,0.2302,0.2304,0,0.1573,0.1609,0.1654,0.1722,0.1739,0.1769,0.1841,0.1886,0.1969,0.2003,0.206,0.2088,0.2169,0.2136,0.2256,0.2212,0.2249,0.2278,0.2284,0.2261,0.2225,0.2183,0.2255,0.2329,0.2327,0.2325,0.2323,0,0.1541,0.161,0.1645,0.1667,0.1745,0.1774,0.1819,0.1897,0.1949,0.2043,0.2094,0.2176,0.2238,0.2296,0.2362,0.232,0.2496,0.2441,0.2467,0.2466,0.2337,0.232,0.2531,0.2531,0.2531,0.253,0.253,0,0.1536,0.1563,0.1631,0.165,0.1695,0.1759,0.1816,0.1876,0.1975,0.2046,0.2119,0.2196,0.2285,0.2387,0.2415,0.2511,0.2546,0.2504,0.2513,0.2353,0.2337,0.2419,0.2404,0.2536,0.2534,0.2533,0.2532,0,0.1492,0.1539,0.1578,0.1655,0.1679,0.171,0.1808,0.1856,0.1959,0.2059,0.2098,0.2251,0.2386,0.2474,0.2596,0.2593,0.2667,0.2686,0.2498,0.2482,0.2582,0.2569,0.2726,0.2726,0.2727,0.2728,0.2729,0,0.1473,0.1489,0.156,0.1583,0.1615,0.1672,0.1715,0.1828,0.1892,0.2083,0.2137,0.2314,0.2419,0.2616,0.2664,0.2748,0.274,0.2615,0.2493,0.2616,0.2608,0.2593,0.2579,0.2349,0.2346,0.2344,0.2343,0,0.1433,0.1454,0.1488,0.1535,0.1576,0.1626,0.1705,0.1752,0.1897,0.2002,0.2167,0.2274,0.2481,0.2516,0.2637,0.2642,0.2583,0.2574,0.2781,0.2322,0.2271,0.226,0.2256,0.2324,0.2326,0.2327,0.2328,0.2329,0.1391,0.14,0.1445,0.1483,0.1533,0.1579,0.16,0.1697,0.1799,0.1939,0.2098,0.2211,0.2322,0.2427,0.2412,0.2409,0.2558,0.2437,0.2439,0.2444,0.2373,0.2325,0.2376,0.2378,0.2379,0.2381,0.2382,0,0.1337,0.1362,0.1395,0.144,0.1465,0.1521,0.1592,0.1594,0.1676,0.1844,0.1973,0.1931,0.2019,0.2111,0.2101,0.2143,0.207,0.2044,0.1923,0.1948,0.1968,0.1865,0.1737,0.1734,0.1731,0.1729,0,0,0.131,0.1316,0.1336,0.1359,0.1397,0.141,0.1433,0.1451,0.1539,0.16,0.1683,0.1905,0.2058,0.1846,0.1868,0.1792,0.1831,0.173,0.2264,0.2146,0.2161,0.2235,0.2112,0,0,0,0,0]},{"header":{"parameterUnit":"m.s-1","parameterCategory":2,"la1":30.2991,"la2":30.254,"lo1":-89.0895,"lo2":-89.0444,"dy":0.0017,"dx":0.0017,"nx":28,"ny":28,"refTime":"2026-02-17T09:00:00:Z","depth":"2","parameterNumber":3,"parameterNumberName":"V-component_of_CURRENTS"},"data":[0,0,0,0,0,0,0,0,0,0,0,0,0,0,0,0,0,0,0,0,0,0,0,0,0,0,0,0,0,0,0,0,0,0,0,0,0,0,0,0,0,0,0,0,0,0,0,0,0,0,0,0,0,0,0,0,0,0,-0.0237,-0.0237,0,-0.0282,-0.0282,-0.0283,-0.0311,-0.0311,-0.0311,-0.0311,-0.037,-0.0371,-0.0373,0,0,0,0,0,0,0,0,0,0,0,0,0,-0.0201,-0.0201,-0.0237,-0.0237,-0.0238,-0.0282,-0.0282,-0.0283,-0.0311,-0.0311,-0.0311,-0.0312,-0.0369,-0.0371,-0.0373,0,0,0,0,0,0,0,0,0,0,0,0,0,-0.0228,-0.0202,-0.0237,-0.0257,-0.026,-0.0281,-0.0282,-0.0283,-0.0311,-0.0311,-0.0311,-0.0312,-0.0369,-0.0371,-0.0373,-0.038,0,0,-0.0379,-0.038,0,0,0,0,0,0,0,0,-0.0226,-0.0229,-0.0254,-0.0256,-0.0259,-0.0291,-0.0291,-0.0316,-0.0311,-0.0291,-0.0311,-0.0312,-0.0345,-0.0349,-0.0356,-0.0383,-0.0385,-0.0379,-0.0381,-0.0382,-0.0382,0,0,0,0,0,0,0,-0.0224,-0.0228,-0.0254,-0.0254,-0.0257,-0.0274,-0.0277,-0.0296,-0.0316,-0.0293,-0.0295,-0.0301,-0.0346,-0.0354,-0.0358,-0.0386,-0.0379,-0.0381,-0.0382,-0.0383,-0.0424,-0.0423,0,0,0,0,0,0,-0.0218,-0.0226,-0.0253,-0.0255,-0.0243,-0.0274,-0.0278,-0.028,-0.0315,-0.0321,-0.03,-0.0302,-0.035,-0.0355,-0.036,-0.0366,-0.0382,-0.0383,-0.0385,-0.0424,-0.0424,-0.0423,0,0,0,0,0,0,-0.0217,-0.022,-0.0251,-0.0242,-0.0247,-0.0274,-0.0276,-0.0281,-0.029,-0.0321,-0.0327,-0.0304,-0.0351,-0.0357,-0.0372,-0.0369,-0.0384,-0.0386,-0.0424,-0.0424,-0.0423,-0.0382,0,0,0,0,0,0,-0.0216,-0.0219,-0.0217,-0.0242,-0.0248,-0.0258,-0.0276,-0.0282,-0.0293,-0.0295,-0.0326,-0.0332,-0.0351,-0.0369,-0.0374,-0.0372,-0.0388,-0.0424,-0.0424,-0.0424,-0.0383,-0.038,-0.0378,0,0,0,0,0,-0.0214,-0.0206,-0.0217,-0.022,-0.0244,-0.0258,-0.0262,-0.0282,-0.0293,-0.0292,-0.0313,-0.0331,-0.0371,-0.037,-0.0376,-0.0375,-0.0424,-0.0424,-0.0424,-0.0385,-0.0381,-0.0378,0,0,0,0,0,0,-0.0185,-0.0209,-0.0221,-0.0219,-0.0237,-0.0263,-0.0263,-0.028,-0.0296,-0.0298,-0.0328,-0.0335,-0.0348,-0.0367,-0.0365,-0.0386,-0.0401,-0.0402,-0.0369,-0.0366,-0.0363,-0.0349,-0.039,0,0,0,0,0,-0.0179,-0.0181,-0.0206,-0.0205,-0.0211,-0.0238,-0.0246,-0.026,-0.0279,-0.0287,-0.031,-0.0333,-0.0352,-0.0362,-0.0381,-0.0391,-0.0411,-0.0395,-0.0392,-0.0389,-0.0382,-0.0418,-0.0418,-0.0422,-0.0422,-0.0422,0,0,-0.0167,-0.018,-0.0181,-0.0199,-0.0214,-0.0214,-0.0243,-0.0251,-0.0252,-0.0291,-0.0296,-0.0324,-0.0352,-0.0363,-0.0371,-0.0378,-0.0396,-0.0389,-0.0386,-0.038,-0.0418,-0.0417,-0.0417,-0.0422,-0.0422,-0.0422,0,0,-0.014,-0.0155,-0.0148,-0.0159,-0.0179,-0.0195,-0.0196,-0.0222,-0.0233,-0.0246,-0.0273,-0.0296,-0.0324,-0.0344,-0.0358,-0.035,-0.0379,-0.0358,-0.0331,-0.0366,-0.0366,-0.0366,-0.0378,-0.038,-0.0356,-0.0356,-0.0356,0,-0.0124,-0.0119,-0.0147,-0.0142,-0.0145,-0.0183,-0.0172,-0.0188,-0.0216,-0.0221,-0.024,-0.0285,-0.0314,-0.0327,-0.0327,-0.0343,-0.0361,-0.0342,-0.0362,-0.0363,-0.0364,-0.0376,-0.0378,-0.0354,-0.0354,-0.0354,-0.0355,0,-0.0094,-0.009,-0.0085,-0.0091,-0.0098,-0.0095,-0.0121,-0.013,-0.0152,-0.0173,-0.0195,-0.0238,-0.0264,-0.0281,-0.0303,-0.032,-0.0329,-0.0355,-0.0369,-0.0361,-0.0374,-0.0377,-0.0351,-0.0352,-0.0352,-0.0353,0,0,-0.0054,-0.0061,-0.0059,-0.005,-0.007,-0.0068,-0.007,-0.0081,-0.0075,-0.0119,-0.0118,-0.0168,-0.02,-0.0218,-0.0254,-0.0288,-0.0312,-0.032,-0.0323,-0.0328,-0.0374,-0.0374,-0.0378,-0.0345,-0.0346,-0.0346,-0.0376,0,-0.0021,0.0004,-0.0012,0.0015,0.0028,-0.0001,0.0005,-0.0012,-0.0035,-0.0045,-0.0103,-0.0118,-0.0174,-0.0185,-0.023,-0.0288,-0.0321,-0.0301,-0.0385,-0.0387,-0.0386,-0.0382,-0.0364,-0.0389,-0.0379,-0.038,-0.038,0,0.0015,0.0027,0.0058,0.0074,0.0078,0.0085,0.0092,0.0091,0.0061,0.0042,0.0003,-0.0038,-0.0088,-0.0141,-0.024,-0.0225,-0.0294,-0.0347,-0.035,-0.0367,-0.0394,-0.04,-0.0395,-0.0386,-0.0386,-0.0385,-0.0385,0,0.0058,0.0079,0.0108,0.0111,0.0119,0.013,0.0132,0.0116,0.0129,0.0095,0.0101,0.0026,0.0003,-0.0103,-0.0209,-0.0228,-0.0316,-0.0357,-0.042,-0.042,-0.0429,-0.0429,-0.0432,-0.0432,-0.0432,-0.0432,-0.0432,0,0.01,0.0126,0.0131,0.0148,0.0191,0.0175,0.0211,0.0202,0.0199,0.0228,0.0148,0.0162,0.0009,-0.0056,-0.0178,-0.0295,-0.0294,-0.0409,-0.0431,-0.0412,-0.041,-0.0431,-0.043,-0.0433,-0.0433,-0.0433,-0.0432,0,0.0141,0.0143,0.0181,0.02,0.0212,0.0238,0.0269,0.0297,0.0283,0.032,0.0317,0.0266,0.0184,0.0038,-0.0115,-0.0234,-0.0359,-0.0404,-0.0357,-0.0373,-0.0449,-0.0446,-0.0482,-0.0483,-0.0483,-0.0483,-0.0483,0,0.0163,0.0185,0.0222,0.0253,0.0263,0.03,0.0333,0.0335,0.0375,0.0396,0.0431,0.0371,0.0348,0.0131,-0.0089,-0.0292,-0.033,-0.0411,-0.0455,-0.0437,-0.0455,-0.0452,-0.0449,-0.0445,-0.0445,-0.0444,-0.0444,0,0.0208,0.0216,0.0249,0.031,0.0351,0.0406,0.0457,0.0505,0.0523,0.0566,0.0625,0.061,0.0408,0.0217,-0.0069,-0.0216,-0.0382,-0.0415,-0.0413,-0.0433,-0.0404,-0.0421,-0.0419,-0.0443,-0.0443,-0.0444,-0.0444,-0.0444,0.0238,0.0269,0.031,0.0366,0.043,0.051,0.0564,0.0638,0.0722,0.0796,0.0778,0.0772,0.0526,0.0181,-0.0079,-0.0358,-0.0361,-0.0465,-0.0464,-0.0464,-0.0453,-0.0426,-0.0466,-0.0466,-0.0466,-0.0466,-0.0466,0,0.0259,0.0297,0.0364,0.0438,0.0515,0.0539,0.065,0.0709,0.0828,0.091,0.0957,0.0759,0.0529,0.025,-0.0161,-0.0414,-0.0446,-0.049,-0.0476,-0.0475,-0.0475,-0.0464,-0.048,-0.0481,-0.0482,-0.0482,0,0,0.0271,0.0327,0.0359,0.0485,0.0552,0.066,0.0727,0.0834,0.0922,0.1011,0.1032,0.0989,0.0643,0.0352,-0.0001,-0.0235,-0.0296,-0.0285,-0.0249,-0.0191,-0.0187,-0.0439,-0.0418,0,0,0,0,0]}],[{"header":{"parameterUnit":"m.s-1","parameterCategory":2,"la1":30.2991,"la2":30.254,"lo1":-89.0895,"lo2":-89.0444,"dy":0.0017,"dx":0.0017,"nx":28,"ny":28,"refTime":"2026-02-17T09:00:00:Z","depth":"4","parameterNumber":2,"parameterNumberName":"U-component_of_CURRENTS"},"data":[0,0,0,0,0,0,0,0,0,0,0,0,0,0,0,0,0,0,0,0,0,0,0,0,0,0,0,0,0,0,0,0,0,0,0,0,0,0,0,0,0,0,0,0,0,0,0,0,0,0,0,0,0,0,0,0,0,0,0.1123,0.1124,0,0.1179,0.118,0.118,0.1218,0.1219,0.1219,0.1219,0.1251,0.1251,0.1252,0,0,0,0,0,0,0,0,0,0,0,0,0,0.1036,0.1037,0.1123,0.1124,0.1125,0.1179,0.118,0.118,0.1218,0.1219,0.1219,0.122,0.1251,0.1251,0.1252,0,0,0,0,0,0,0,0,0,0,0,0,0,0.1079,0.1037,0.1123,0.1151,0.1155,0.1179,0.118,0.118,0.1218,0.1219,0.1219,0.122,0.125,0.1251,0.1252,0.1243,0,0,0.1254,0.1254,0,0,0,0,0,0,0,0,0.1077,0.1082,0.1146,0.115,0.1153,0.1194,0.116,0.1201,0.1218,0.1192,0.1219,0.122,0.123,0.1232,0.1239,0.1244,0.1246,0.1254,0.1254,0.1254,0.1255,0,0,0,0,0,0,0,0.1074,0.108,0.1143,0.1147,0.1152,0.1157,0.1164,0.1168,0.1205,0.1194,0.1198,0.1206,0.1232,0.1239,0.124,0.1246,0.1254,0.1254,0.1255,0.1255,0.1323,0.1324,0,0,0,0,0,0,0.107,0.1077,0.1142,0.1145,0.1118,0.1158,0.1166,0.1179,0.1206,0.1211,0.1206,0.1208,0.1237,0.124,0.1242,0.1302,0.1254,0.1255,0.1255,0.1321,0.1323,0.1324,0,0,0,0,0,0,0.1068,0.1076,0.114,0.1113,0.1122,0.1159,0.1173,0.1179,0.1211,0.1215,0.122,0.1234,0.1238,0.1241,0.1274,0.13,0.1255,0.1256,0.1319,0.1322,0.1324,0.1377,0,0,0,0,0,0,0.1066,0.1075,0.1093,0.1113,0.1124,0.117,0.1173,0.118,0.1215,0.1219,0.124,0.1242,0.1239,0.1274,0.1275,0.13,0.1256,0.1318,0.132,0.1323,0.1373,0.138,0.1387,0,0,0,0,0,0.1062,0.1081,0.1093,0.1102,0.1144,0.1171,0.1177,0.1204,0.1216,0.1234,0.1255,0.1243,0.1291,0.1275,0.1277,0.1303,0.1316,0.132,0.1323,0.137,0.1379,0.1386,0,0,0,0,0,0,0.1052,0.1087,0.1101,0.113,0.1157,0.1179,0.1202,0.1217,0.1247,0.1259,0.126,0.1264,0.1302,0.1297,0.1279,0.1331,0.1302,0.1306,0.1338,0.1346,0.1353,0.135,0.1257,0,0,0,0,0,0.1058,0.1084,0.1113,0.1139,0.1155,0.1183,0.1201,0.122,0.1245,0.126,0.1276,0.1294,0.1312,0.1325,0.1336,0.1364,0.1365,0.1383,0.1389,0.1395,0.1395,0.1418,0.1426,0.1335,0.1335,0.1335,0,0,0.1061,0.1085,0.1101,0.114,0.1164,0.1191,0.1196,0.1233,0.1261,0.1257,0.1306,0.1318,0.1324,0.1359,0.1375,0.1361,0.1426,0.1399,0.1404,0.14,0.1422,0.1431,0.1439,0.1337,0.1337,0.1336,0,0,0.1073,0.1105,0.1128,0.1153,0.1196,0.1213,0.1229,0.1265,0.1292,0.1333,0.1341,0.1371,0.1398,0.141,0.1417,0.1466,0.146,0.1475,0.1508,0.1531,0.1539,0.1545,0.1576,0.1585,0.148,0.148,0.148,0,0.1077,0.1111,0.1139,0.1167,0.1193,0.1225,0.1254,0.1282,0.1328,0.1352,0.1357,0.1413,0.142,0.1457,0.148,0.148,0.1497,0.1476,0.154,0.1546,0.1552,0.1582,0.1591,0.1483,0.1482,0.1482,0.1482,0,0.1099,0.1136,0.1153,0.12,0.1229,0.1263,0.1301,0.1339,0.1374,0.14,0.1455,0.1471,0.1503,0.1514,0.1514,0.1563,0.1564,0.1544,0.1517,0.1564,0.1593,0.1601,0.1487,0.1486,0.1485,0.1484,0,0,0.1081,0.1155,0.1163,0.1192,0.1253,0.1275,0.1329,0.138,0.1417,0.1465,0.1512,0.155,0.1566,0.1575,0.1583,0.1606,0.1668,0.1601,0.16,0.1628,0.1736,0.1661,0.1662,0.1664,0.1666,0.1667,0.1747,0,0.1092,0.1146,0.1183,0.1237,0.1267,0.1316,0.1361,0.1413,0.1459,0.1512,0.1545,0.1591,0.1588,0.1613,0.1638,0.1659,0.1691,0.1649,0.1689,0.169,0.1614,0.1669,0.1671,0.1753,0.1755,0.1756,0.1757,0,0.1096,0.1136,0.1189,0.126,0.1278,0.1316,0.1391,0.1437,0.1514,0.1552,0.1605,0.1633,0.169,0.1672,0.1738,0.1717,0.1736,0.1746,0.1748,0.166,0.1629,0.1692,0.1772,0.1771,0.177,0.1769,0.1768,0,0.1059,0.1136,0.1179,0.1205,0.1288,0.1326,0.1375,0.1452,0.1495,0.1584,0.1624,0.1687,0.173,0.1761,0.18,0.1778,0.1865,0.183,0.1782,0.1777,0.1796,0.1788,0.1874,0.1874,0.1874,0.1874,0.1873,0,0.1045,0.1082,0.1169,0.1193,0.1247,0.1314,0.1376,0.1436,0.1518,0.1568,0.1645,0.1689,0.1756,0.1812,0.1829,0.1841,0.1894,0.1798,0.1792,0.182,0.1814,0.1803,0.1794,0.1877,0.1876,0.1875,0.1875,0,0.0994,0.1055,0.1106,0.12,0.1231,0.1271,0.137,0.1408,0.1502,0.1571,0.1605,0.1711,0.1789,0.1851,0.1913,0.1872,0.1891,0.1882,0.1936,0.193,0.1781,0.1774,0.1824,0.1822,0.182,0.1819,0.1818,0,0.0971,0.0995,0.1096,0.1126,0.1172,0.1241,0.1285,0.1388,0.1428,0.157,0.1592,0.1711,0.1774,0.181,0.1877,0.1919,0.1897,0.1892,0.1806,0.1786,0.1776,0.1772,0.1767,0.1815,0.1815,0.1814,0.1814,0,0.0923,0.0967,0.1009,0.1073,0.1125,0.1173,0.1247,0.1264,0.1383,0.1482,0.155,0.1607,0.1701,0.1759,0.1817,0.1834,0.1881,0.1873,0.1876,0.1794,0.1776,0.1767,0.1764,0.1808,0.1809,0.1809,0.181,0,0.088,0.0895,0.0956,0.1001,0.1064,0.1087,0.1136,0.1194,0.125,0.1405,0.1429,0.1568,0.168,0.1718,0.1767,0.179,0.1754,0.1682,0.1693,0.1701,0.1624,0.1581,0.1557,0,0,0,0,0,0.0828,0.0835,0.0879,0.0919,0.098,0.1016,0.1101,0.1153,0.1266,0.1282,0.1352,0.1437,0.1525,0.1598,0.1599,0.1715,0.1757,0.1707,0.1678,0.1775,0.1782,0.1704,0,0,0,0,0,0,0.0787,0.0824,0.0846,0.0843,0.0857,0.0908,0.0958,0.1037,0.1055,0.1184,0.1243,0.1351,0.146,0.1511,0.1569,0.1593,0.1547,0.1799,0.1796,0.1771,0.1777,0.1783,0.1705,0,0,0,0,0]},{"header":{"parameterUnit":"m.s-1","parameterCategory":2,"la1":30.2991,"la2":30.254,"lo1":-89.0895,"lo2":-89.0444,"dy":0.0017,"dx":0.0017,"nx":28,"ny":28,"refTime":"2026-02-17T09:00:00:Z","depth":"4","parameterNumber":3,"parameterNumberName":"V-component_of_CURRENTS"},"data":[0,0,0,0,0,0,0,0,0,0,0,0,0,0,0,0,0,0,0,0,0,0,0,0,0,0,0,0,0,0,0,0,0,0,0,0,0,0,0,0,0,0,0,0,0,0,0,0,0,0,0,0,0,0,0,0,0,0,-0.0119,-0.0119,0,-0.0155,-0.0155,-0.0156,-0.0184,-0.0184,-0.0185,-0.0185,-0.022,-0.0221,-0.0221,0,0,0,0,0,0,0,0,0,0,0,0,0,-0.0091,-0.0091,-0.0119,-0.0119,-0.012,-0.0155,-0.0155,-0.0156,-0.0184,-0.0185,-0.0185,-0.0185,-0.022,-0.0221,-0.0221,0,0,0,0,0,0,0,0,0,0,0,0,0,-0.0113,-0.0092,-0.0119,-0.0138,-0.014,-0.0155,-0.0155,-0.0156,-0.0184,-0.0185,-0.0185,-0.0185,-0.022,-0.0221,-0.0222,-0.0219,0,0,-0.0225,-0.0225,0,0,0,0,0,0,0,0,-0.0111,-0.0114,-0.0135,-0.0137,-0.0139,-0.0166,-0.0158,-0.0177,-0.0184,-0.0167,-0.0185,-0.0186,-0.0202,-0.0204,-0.021,-0.022,-0.0222,-0.0225,-0.0225,-0.0226,-0.0226,0,0,0,0,0,0,0,-0.011,-0.0112,-0.0133,-0.0135,-0.0138,-0.0151,-0.0154,-0.0162,-0.0181,-0.0169,-0.0171,-0.0175,-0.0203,-0.0209,-0.0211,-0.0222,-0.0225,-0.0225,-0.0226,-0.0226,-0.0245,-0.0245,0,0,0,0,0,0,-0.0104,-0.0111,-0.0132,-0.0134,-0.0126,-0.0151,-0.0155,-0.0157,-0.0181,-0.0186,-0.0175,-0.0176,-0.0207,-0.0209,-0.0212,-0.0211,-0.0226,-0.0227,-0.0227,-0.0246,-0.0245,-0.0245,0,0,0,0,0,0,-0.0104,-0.0106,-0.013,-0.0124,-0.0128,-0.0151,-0.0153,-0.0157,-0.0167,-0.0186,-0.019,-0.0181,-0.0207,-0.0211,-0.0222,-0.0213,-0.0227,-0.0228,-0.0246,-0.0245,-0.0245,-0.0209,0,0,0,0,0,0,-0.0103,-0.0105,-0.0105,-0.0123,-0.0128,-0.0136,-0.0153,-0.0157,-0.0169,-0.0172,-0.0193,-0.0196,-0.0208,-0.0221,-0.0223,-0.0214,-0.0229,-0.0246,-0.0246,-0.0245,-0.021,-0.0207,-0.0205,0,0,0,0,0,-0.0101,-0.0096,-0.0105,-0.0108,-0.0127,-0.0136,-0.014,-0.0158,-0.0169,-0.017,-0.0187,-0.0196,-0.0222,-0.0221,-0.0224,-0.0215,-0.0246,-0.0246,-0.0245,-0.0211,-0.0208,-0.0205,0,0,0,0,0,0,-0.0082,-0.0099,-0.0109,-0.0109,-0.0122,-0.0141,-0.0143,-0.0157,-0.0172,-0.0175,-0.0195,-0.02,-0.0207,-0.0218,-0.0217,-0.0222,-0.0235,-0.0235,-0.0208,-0.0205,-0.0202,-0.0191,-0.0229,0,0,0,0,0,-0.0078,-0.008,-0.0098,-0.0098,-0.0103,-0.0124,-0.0131,-0.0144,-0.0159,-0.0166,-0.0182,-0.0198,-0.0207,-0.0212,-0.0224,-0.0224,-0.0239,-0.0221,-0.0219,-0.0217,-0.021,-0.022,-0.0217,-0.0245,-0.0245,-0.0245,0,0,-0.007,-0.008,-0.0081,-0.0094,-0.0106,-0.0105,-0.0129,-0.0137,-0.0137,-0.0167,-0.0172,-0.0191,-0.0207,-0.021,-0.0213,-0.0217,-0.0219,-0.0216,-0.0214,-0.0209,-0.0219,-0.0216,-0.0214,-0.0245,-0.0245,-0.0245,0,0,-0.0052,-0.0064,-0.0059,-0.0067,-0.0082,-0.0093,-0.0095,-0.0116,-0.0125,-0.0135,-0.0155,-0.0167,-0.0185,-0.0191,-0.0197,-0.0188,-0.0208,-0.0194,-0.0168,-0.0177,-0.0175,-0.0173,-0.0198,-0.0199,-0.019,-0.0189,-0.0189,0,-0.0042,-0.0038,-0.0059,-0.0054,-0.0056,-0.0085,-0.0076,-0.0088,-0.0111,-0.0113,-0.0132,-0.0157,-0.0174,-0.0169,-0.0169,-0.018,-0.0197,-0.0176,-0.0173,-0.0171,-0.017,-0.0196,-0.0197,-0.0188,-0.0188,-0.0188,-0.0188,0,-0.002,-0.0017,-0.0014,-0.0017,-0.0021,-0.0019,-0.0036,-0.0043,-0.0062,-0.0075,-0.0085,-0.0113,-0.0126,-0.0134,-0.015,-0.0145,-0.0164,-0.017,-0.0177,-0.0164,-0.0194,-0.0196,-0.0185,-0.0186,-0.0186,-0.0187,0,0,0.0004,0.0003,0.0004,0.0012,-0.0001,0.0002,0.0003,-0.0001,0.0007,-0.0026,-0.002,-0.0047,-0.0069,-0.0078,-0.01,-0.0109,-0.0121,-0.0134,-0.0135,-0.0154,-0.0154,-0.0176,-0.0181,-0.0126,-0.0126,-0.0125,-0.0183,0,0.0028,0.0048,0.0039,0.0062,0.0071,0.0053,0.0062,0.0054,0.0038,0.0035,0.0001,-0.0005,-0.0045,-0.005,-0.0067,-0.0104,-0.0122,-0.0106,-0.0169,-0.0171,-0.0187,-0.0182,-0.0125,-0.0185,-0.0185,-0.0185,-0.0186,0,0.0051,0.0063,0.0089,0.0107,0.011,0.0119,0.013,0.0133,0.0119,0.0106,0.0085,0.0056,0.0032,-0.0002,-0.0062,-0.0051,-0.01,-0.0134,-0.0137,-0.0168,-0.0195,-0.0199,-0.0189,-0.0189,-0.0188,-0.0188,-0.0188,0,0.0079,0.0099,0.0123,0.0127,0.014,0.0151,0.0157,0.0153,0.0167,0.0149,0.0156,0.0111,0.0095,0.0033,-0.0053,-0.0054,-0.0124,-0.0133,-0.0202,-0.0205,-0.0185,-0.0186,-0.0174,-0.0174,-0.0174,-0.0174,-0.0174,0,0.0106,0.0127,0.0138,0.0152,0.0189,0.0183,0.0217,0.0215,0.0221,0.0245,0.0194,0.0199,0.0105,0.005,-0.0034,-0.0129,-0.0114,-0.0197,-0.0216,-0.0171,-0.017,-0.0187,-0.0188,-0.0176,-0.0175,-0.0175,-0.0175,0,0.0129,0.0135,0.0167,0.0189,0.0202,0.0225,0.026,0.0285,0.0282,0.0312,0.0311,0.0266,0.0189,0.0083,-0.0022,-0.0098,-0.0189,-0.0228,-0.0183,-0.0199,-0.0271,-0.0269,-0.0303,-0.0304,-0.0305,-0.0306,-0.0306,0,0.0141,0.0157,0.0195,0.0221,0.0232,0.0268,0.0299,0.0311,0.0342,0.0355,0.0376,0.0314,0.0265,0.0105,-0.0021,-0.0192,-0.0217,-0.027,-0.0261,-0.0267,-0.0282,-0.0278,-0.0276,-0.0308,-0.0308,-0.0308,-0.0308,0,0.0163,0.0173,0.02,0.0252,0.029,0.034,0.0383,0.0413,0.0433,0.0436,0.0439,0.0352,0.0258,0.0115,-0.0027,-0.0146,-0.0236,-0.028,-0.0279,-0.0271,-0.0273,-0.0287,-0.0283,-0.0312,-0.0311,-0.0311,-0.0311,0,0.0176,0.0198,0.0232,0.0278,0.0336,0.0394,0.0416,0.0455,0.0483,0.0497,0.0494,0.039,0.0328,0.0138,0.0012,-0.0117,-0.0147,-0.0182,-0.0186,-0.0184,-0.0139,-0.0124,-0.0129,0,0,0,0,0,0.0179,0.0204,0.0255,0.031,0.0372,0.0403,0.0469,0.0487,0.0512,0.0525,0.0513,0.0426,0.0243,0.0165,0.0035,-0.0024,-0.0185,-0.0183,-0.0231,-0.033,-0.0326,-0.0297,0,0,0,0,0,0,0.0179,0.0222,0.0251,0.0329,0.0371,0.0441,0.0484,0.0504,0.0513,0.052,0.0429,0.0385,0.0207,0.0316,0.0029,-0.0012,-0.006,-0.027,-0.0273,-0.0332,-0.0329,-0.0326,-0.0294,0,0,0,0,0]}]]